Theta_e
316 317 318 323 332 341 344 346 346 347 348 348 348 347 349 348 349 348 348 348 348 347 348 348 348 348 348 349 349 349 349 348 348 349 349 349 349 349 349 349 349 348 348 348 347 346 346 346 346 345 345 346 345 346 346 346 346 347 347 347 348 350 351 353 353 353 353 353 354 355 354 354 355 356 355 355 355 354 353 353 353 356 356 356 356
313 315 316 319 330 340 341 343 344 346 346 346 346 347 348 347 347 348 348 348 348 348 348 347 347 348 348 348 348 348 348 348 347 347 347 347 347 348 349 349 349 349 349 349 349 347 347 347 346 345 345 345 345 344 344 345 346 346 347 347 347 348 350 351 354 353 352 351 351 352 352 353 354 356 355 355 354 353 352 352 352 355 355 356 356
314 313 313 317 328 337 339 340 342 343 343 344 344 344 344 344 345 346 347 348 348 347 347 348 348 347 348 348 348 348 348 347 348 347 346 344 346 346 347 347 348 349 349 350 349 349 348 348 348 347 346 346 345 345 344 345 345 346 346 347 347 348 350 352 353 353 352 351 351 350 348 348 351 353 355 354 354 354 352 351 351 351 354 356 355
310 310 312 317 325 333 336 338 338 338 340 340 341 341 342 341 342 343 344 346 347 347 347 347 348 348 347 347 347 347 347 348 348 347 347 347 346 346 345 344 346 348 348 350 349 348 348 348 348 348 348 350 350 348 346 345 346 346 346 347 347 348 348 351 353 352 351 350 350 347 351 353 352 352 355 355 354 354 351 351 350 352 355 355 355
308 309 311 316 321 329 333 334 334 335 336 337 337 338 338 338 339 340 341 342 343 345 346 346 346 347 347 347 347 348 347 347 347 347 347 347 346 346 345 346 346 346 347 348 347 348 348 347 348 348 348 350 351 351 350 347 346 345 345 346 347 348 348 350 352 352 351 349 348 346 351 352 354 352 354 356 353 354 350 351 351 353 354 354 356
306 307 310 315 320 326 330 332 332 332 333 334 335 335 336 336 336 337 337 339 341 342 342 343 344 345 346 346 347 347 347 346 348 347 347 346 345 346 345 346 345 346 347 347 347 347 348 347 347 347 347 350 350 350 350 348 346 345 344 345 346 347 349 351 351 351 350 348 345 351 351 352 352 353 354 355 355 353 350 351 352 354 354 354 355
304 306 308 313 319 324 328 330 331 330 331 331 332 333 333 334 334 334 335 335 336 336 337 339 340 341 342 343 344 346 346 346 346 347 346 346 346 345 345 345 346 346 347 346 347 346 347 347 348 347 348 349 350 350 350 348 347 345 345 345 345 346 348 350 350 349 348 348 351 352 350 350 352 353 353 355 355 354 351 352 354 354 354 355 355
304 305 306 311 318 322 326 328 329 329 329 329 330 330 331 331 331 331 331 331 332 333 335 336 337 339 340 341 342 343 344 344 344 344 345 345 345 345 345 344 345 346 347 346 347 346 345 347 347 346 348 348 349 349 349 348 348 348 348 347 346 346 349 350 349 348 346 350 350 350 350 350 350 352 352 354 354 354 353 353 354 354 354 354 351
301 302 304 309 317 321 323 326 327 327 328 328 328 328 329 330 329 328 328 328 329 330 332 333 334 335 336 338 339 340 342 342 342 342 343 343 343 343 344 343 344 345 346 347 346 346 345 346 347 346 346 346 347 349 349 349 349 348 348 348 348 348 349 348 348 345 348 349 349 349 349 349 349 350 351 353 354 354 353 353 353 353 354 353 350
300 301 303 307 317 319 322 324 324 325 326 326 326 326 327 327 327 327 326 326 326 327 328 330 330 330 331 331 332 334 335 336 338 339 339 340 340 341 341 343 343 343 344 345 346 347 345 346 345 346 345 344 345 344 345 348 349 349 349 348 348 348 349 349 347 344 350 349 349 348 348 345 349 350 350 353 354 353 353 349 347 347 349 350 348
300 300 302 306 315 317 320 322 322 322 323 324 324 324 325 325 324 324 324 324 324 324 325 327 327 327 327 327 328 329 330 333 334 335 335 335 334 335 338 341 341 341 342 344 345 345 345 346 346 345 345 344 343 343 343 344 345 348 348 348 348 348 349 347 344 350 350 348 347 347 345 342 347 349 349 351 354 353 350 348 345 345 347 350 351
299 300 301 304 312 315 317 319 320 321 321 322 322 322 323 322 322 322 322 321 321 322 323 323 323 323 324 323 324 325 326 328 328 328 328 327 327 328 331 334 337 339 340 341 342 343 344 345 345 344 344 342 342 343 343 344 344 344 346 348 348 348 347 344 346 349 349 348 346 346 347 345 346 347 349 351 352 352 350 348 349 350 351 351 352
300 299 300 302 307 312 313 316 318 318 319 319 320 320 321 320 320 320 320 319 319 320 320 320 320 321 321 320 320 321 322 324 324 324 323 323 323 325 327 329 332 334 334 335 335 337 340 342 343 342 342 340 340 341 341 342 343 344 344 345 347 347 344 341 347 347 347 348 346 346 346 346 346 345 348 350 352 352 352 352 351 352 351 351 352
299 299 300 300 303 308 310 311 314 316 316 317 318 317 318 318 318 318 318 317 317 318 318 318 318 318 318 317 317 318 319 320 321 320 320 320 320 321 324 327 329 330 329 329 330 331 334 338 338 338 338 338 339 340 340 340 341 342 342 343 345 345 340 338 341 347 345 345 346 346 345 345 346 345 347 350 350 351 351 351 351 351 351 351 350
299 301 301 299 299 302 306 308 309 312 313 314 315 315 315 316 316 315 315 315 315 315 315 316 316 316 315 315 315 316 316 317 318 317 317 317 317 319 321 324 325 325 324 325 326 327 328 330 331 332 334 335 337 338 339 339 339 338 338 339 342 341 338 346 346 346 345 344 345 344 344 344 343 344 346 349 349 350 351 351 351 351 351 351 350
300 299 300 299 299 299 301 304 305 307 309 310 311 312 312 313 313 313 313 313 313 312 312 313 313 313 312 312 312 312 313 314 314 315 315 314 315 316 318 320 321 322 322 322 323 324 324 325 326 327 329 332 334 335 336 336 336 335 335 335 336 337 335 333 346 344 344 343 344 344 344 344 343 344 346 349 349 349 351 350 351 351 351 351 351
299 300 299 299 300 298 299 300 302 302 304 307 307 308 309 310 311 311 311 311 310 310 309 310 310 310 310 309 308 308 308 310 311 312 311 311 312 313 314 317 318 319 319 319 320 321 322 322 322 323 325 327 331 332 332 332 333 333 334 334 335 335 334 330 344 343 343 343 344 344 344 344 342 344 346 349 349 348 350 350 351 351 351 351 351
298 297 297 298 298 298 298 299 299 299 299 300 305 305 306 307 308 308 307 307 308 307 307 306 307 307 306 305 305 304 304 306 306 308 308 307 309 309 310 314 315 316 316 317 318 319 319 319 320 320 322 323 325 327 327 328 330 331 332 332 332 332 331 327 341 342 343 340 343 344 343 340 342 344 346 348 349 349 348 349 350 352 351 350 350
296 295 296 297 297 298 297 298 298 298 299 299 299 303 303 304 304 305 305 305 305 305 304 303 303 304 303 302 302 301 301 302 302 303 304 304 304 304 306 310 312 313 313 314 315 316 316 317 318 318 319 320 320 322 323 326 326 328 330 329 328 327 325 329 339 340 341 342 342 342 342 340 342 345 346 347 348 350 349 348 348 350 351 351 351
296 296 295 296 297 297 297 297 297 297 298 298 299 301 300 301 301 302 302 302 302 302 302 301 300 301 301 300 300 299 299 299 300 299 300 301 301 301 304 307 309 309 310 311 312 313 314 315 315 316 317 317 316 316 317 320 323 324 325 325 324 321 332 337 337 338 339 340 341 341 339 339 342 345 347 347 348 348 350 350 347 348 348 351 350
296 295 295 295 296 296 296 296 296 296 297 298 298 299 300 298 298 299 299 299 300 299 299 298 298 298 299 299 298 298 298 298 297 297 298 297 299 300 301 304 305 306 306 308 308 310 311 313 313 313 314 314 312 311 312 314 316 319 321 321 319 329 333 335 337 337 338 339 339 340 337 339 342 344 347 347 347 347 348 349 349 347 347 346 349
294 294 295 294 295 295 296 295 296 296 296 298 297 298 298 297 297 296 297 296 297 297 296 297 296 296 297 297 297 296 295 295 296 297 296 296 296 298 299 301 302 302 303 304 305 306 308 310 310 311 311 310 308 307 309 311 313 314 316 318 323 328 330 332 334 336 337 338 338 337 337 340 342 345 346 346 347 347 347 348 349 349 347 346 349
292 294 294 294 294 295 295 295 295 295 296 296 297 297 295 296 296 296 295 295 295 295 295 295 295 295 296 296 295 295 295 294 294 295 295 295 294 296 297 298 299 299 300 300 301 303 305 306 307 307 307 306 305 306 306 309 310 310 312 318 321 323 326 328 331 333 334 335 336 333 336 339 341 344 345 345 346 345 346 348 348 348 348 346 345
292 294 294 295 294 295 295 296 295 295 295 296 296 296 295 295 295 295 294 294 294 294 294 294 294 294 295 294 293 294 293 293 293 293 293 293 293 294 294 295 295 295 297 296 298 299 302 302 303 304 303 303 303 303 304 306 307 309 312 314 318 319 321 324 327 329 331 333 335 332 335 338 341 342 345 345 345 345 345 347 348 348 347 346 343
293 293 295 293 294 293 294 295 295 295 295 294 295 296 295 295 295 295 294 293 294 293 293 293 294 294 293 293 293 292 292 291 291 291 291 291 292 292 292 292 292 293 295 294 294 296 297 298 299 300 300 301 301 302 303 303 304 306 307 309 311 315 317 321 325 326 328 331 332 330 332 335 339 341 344 345 345 344 345 345 347 348 347 347 345
293 291 292 293 294 293 293 294 294 294 294 294 294 295 294 294 295 295 294 293 293 293 293 293 292 293 292 292 291 291 291 290 291 291 291 291 291 291 291 291 291 291 292 292 293 294 295 296 297 298 298 299 300 301 302 302 303 303 304 306 309 311 316 318 321 323 326 329 331 328 330 333 337 340 342 344 345 344 344 344 346 346 348 348 346
293 292 292 292 293 292 293 294 294 294 294 294 294 294 294 294 295 295 294 294 293 292 292 292 292 292 292 291 290 289 289 289 289 289 289 290 290 290 290 290 290 290 291 291 292 293 294 294 295 296 297 298 299 300 301 302 302 302 303 304 306 308 310 314 317 320 323 325 324 325 327 329 335 339 340 343 344 343 344 344 345 345 345 347 348
291 291 292 292 294 292 291 292 295 294 294 294 293 293 293 294 295 294 294 294 292 292 292 292 292 291 291 290 290 289 288 288 289 289 289 289 289 289 289 289 289 289 290 291 290 291 292 293 294 295 296 297 297 299 300 301 301 302 302 303 304 306 308 309 311 316 321 322 324 323 325 327 330 333 336 339 342 343 342 344 344 344 345 345 347
290 291 291 291 292 295 292 291 292 293 293 293 293 293 293 294 294 293 293 294 292 292 292 292 291 290 290 290 290 289 288 288 288 288 288 288 288 288 288 288 288 289 289 289 289 289 290 292 293 294 295 296 297 298 298 299 300 300 301 301 303 304 305 306 308 310 315 319 322 322 321 324 329 331 334 338 340 342 343 343 343 344 344 344 344
290 291 291 292 291 291 291 291 292 294 293 293 294 293 293 293 294 293 293 293 292 292 292 290 290 290 289 290 289 289 288 287 288 288 288 287 288 288 287 287 287 288 288 287 288 288 289 291 292 293 294 295 296 297 297 298 299 299 300 301 301 302 303 304 305 307 308 309 315 320 319 321 325 330 332 334 337 340 342 342 342 342 344 345 344
290 290 291 291 295 291 292 293 293 297 293 293 294 293 293 292 294 293 292 292 292 292 291 290 290 289 289 290 289 289 289 288 287 287 287 287 287 287 287 287 287 287 287 287 288 288 289 290 291 291 292 293 294 296 296 297 297 298 299 299 300 301 301 302 303 304 304 306 308 309 312 316 320 324 328 332 335 337 339 341 340 340 342 342 344
290 290 291 291 291 291 291 292 291 295 293 292 295 293 292 292 294 292 292 292 292 291 290 290 289 289 289 289 288 288 288 287 287 287 287 286 286 286 286 286 286 286 287 287 287 288 288 289 290 291 292 292 293 294 295 295 296 297 298 298 299 300 300 301 301 301 302 304 305 307 309 311 314 320 323 327 333 335 337 338 339 339 341 342 343
290 291 290 292 290 291 291 291 292 292 291 291 292 292 293 292 293 292 292 293 291 290 289 289 289 289 289 289 288 288 288 287 286 286 286 285 285 285 285 286 286 286 286 286 287 287 288 288 289 289 290 291 292 293 295 295 295 296 297 298 298 299 300 300 300 300 301 302 303 304 306 308 311 313 318 321 326 331 334 336 337 338 340 341 342
290 289 289 289 291 292 294 293 292 292 293 291 293 292 292 293 293 292 292 291 290 289 289 289 289 288 288 288 288 287 288 287 286 286 285 285 285 285 285 285 285 286 286 286 286 287 286 286 286 287 287 288 289 291 292 292 294 295 296 297 298 298 299 299 299 299 300 300 301 302 303 305 307 309 312 316 321 325 329 332 334 336 337 338 340
291 289 289 290 292 291 293 290 295 292 293 292 293 293 293 292 292 291 291 291 290 289 289 289 288 288 288 287 288 287 287 287 286 285 285 285 284 284 284 284 285 285 285 286 286 285 285 285 285 285 286 286 287 288 288 289 290 291 293 295 296 297 297 297 298 299 299 300 300 301 301 303 305 307 310 313 313 319 324 328 333 335 336 337 338
290 289 289 289 289 289 294 291 293 291 291 292 293 292 291 291 291 293 291 291 290 289 288 288 288 288 287 287 287 287 287 286 286 285 284 284 284 284 284 284 284 285 285 285 285 284 284 284 285 285 283 284 285 285 286 287 288 289 291 292 294 295 295 296 296 297 298 299 299 300 300 301 303 305 306 308 312 318 320 324 328 331 334 334 336
289 288 289 288 289 289 293 290 290 290 290 289 291 291 290 290 289 290 290 291 289 288 288 288 288 287 287 287 287 287 287 286 286 285 284 284 284 283 284 284 284 284 284 284 284 284 283 284 284 284 284 283 284 284 286 287 287 288 289 290 292 293 294 294 295 296 298 298 298 299 300 300 301 302 302 305 308 311 315 321 325 327 327 329 333
288 288 288 288 289 289 291 290 290 290 290 290 290 290 290 290 290 290 291 289 289 288 288 288 287 287 286 286 287 287 286 286 285 285 284 284 284 283 283 283 283 283 283 283 283 283 283 283 282 283 283 283 282 283 284 285 287 288 288 290 291 292 293 295 296 296 296 297 297 298 299 299 300 300 301 303 306 308 313 319 321 322 320 323 329
287 287 287 288 289 288 290 292 291 290 290 289 290 291 289 288 288 288 288 287 287 287 287 287 287 286 286 286 287 286 285 285 285 285 284 283 283 283 283 283 283 283 282 282 282 283 283 282 282 282 283 283 282 283 283 284 285 287 288 289 291 292 293 295 295 296 296 297 297 298 299 299 299 300 301 302 303 305 309 316 325 328 328 319 326
287 286 287 287 288 288 288 290 291 289 289 289 289 289 288 288 287 287 286 286 287 286 287 286 286 286 286 286 286 286 285 285 285 284 283 283 283 282 282 283 282 282 281 281 281 281 281 281 281 281 281 281 282 282 283 284 285 285 287 288 290 291 292 294 294 295 296 297 297 298 297 298 299 299 301 302 303 306 308 311 319 326 328 325 321
286 285 286 286 287 287 288 287 288 288 288 288 288 287 287 286 286 285 285 285 285 286 286 286 286 286 286 286 286 285 285 284 284 284 283 282 282 282 282 282 282 282 281 281 281 281 282 281 281 281 280 279 280 282 282 283 282 283 287 288 289 292 292 293 293 294 295 296 296 297 297 297 298 298 299 300 302 303 306 310 314 324 327 330 327
284 284 286 286 286 286 287 288 288 287 288 287 288 288 287 287 286 285 285 285 284 284 284 285 285 286 286 286 285 285 284 284 283 283 283 282 282 281 281 281 281 281 281 282 281 281 281 280 280 279 281 279 279 281 282 283 283 284 283 285 287 290 292 292 292 293 294 295 296 296 297 297 297 298 299 300 302 304 305 307 312 319 326 328 329
285 285 286 286 286 286 287 287 287 287 287 287 287 287 287 287 286 286 285 284 285 284 284 285 285 285 285 284 284 284 284 283 283 283 282 282 281 281 281 281 281 281 280 280 280 280 280 280 279 278 278 279 279 281 281 283 281 282 283 283 283 285 289 291 292 293 294 296 296 296 297 298 299 301 304 305 306 306 306 308 310 315 324 327 329
285 284 284 285 285 286 286 286 287 287 287 287 288 287 287 286 286 285 285 284 284 285 285 285 285 284 284 284 284 284 283 283 283 282 282 282 281 281 281 281 280 281 280 279 279 279 279 279 279 279 278 276 278 278 281 281 280 279 278 284 283 283 281 286 289 291 294 294 294 294 296 296 296 297 297 297 300 305 312 315 315 315 319 325 328
284 284 284 285 285 286 286 286 286 286 286 288 288 288 287 286 285 284 284 283 284 283 283 282 283 283 283 283 283 283 283 282 282 282 281 281 281 281 280 280 280 280 280 279 279 279 279 279 279 278 278 277 276 278 279 280 280 281 280 279 280 281 283 285 286 286 290 291 293 295 295 295 296 297 298 297 298 298 299 300 307 319 321 323 326
284 285 285 286 286 286 286 286 286 286 286 286 287 286 287 285 283 282 281 281 280 280 280 280 281 281 281 282 282 282 281 281 281 281 281 281 280 281 280 280 280 280 280 279 279 279 279 278 279 278 278 278 277 276 276 279 279 280 281 282 282 280 281 283 283 279 289 290 291 292 293 294 295 295 295 296 296 299 303 306 307 309 319 323 325
284 285 285 285 285 286 285 285 286 286 286 286 285 286 284 284 282 282 282 281 280 281 281 282 281 282 282 281 281 281 281 280 281 280 280 280 280 280 280 280 280 279 280 279 278 278 278 279 279 278 278 278 278 275 275 276 278 278 279 280 281 283 284 282 280 283 280 285 289 290 292 294 295 295 296 297 297 297 297 298 300 304 308 316 323
285 284 284 284 284 285 284 285 285 286 285 286 284 286 284 283 282 282 282 281 281 281 281 281 282 282 281 281 280 280 280 280 280 280 280 280 280 280 280 279 279 279 279 278 278 278 278 279 279 278 278 278 277 276 275 276 275 275 279 278 279 281 282 284 285 283 281 280 283 289 291 292 293 294 294 294 295 296 296 298 300 303 306 311 318
284 284 284 284 284 284 284 284 284 286 285 285 284 283 285 283 283 282 281 282 281 281 281 282 281 281 279 279 279 279 279 279 279 279 279 279 279 279 279 279 278 278 278 278 278 278 278 277 277 277 277 277 277 277 276 275 276 275 276 276 278 279 281 283 285 286 283 281 281 282 284 289 292 293 294 295 296 296 296 297 298 300 304 307 311
284 285 284 284 284 283 284 283 284 284 284 283 285 283 283 284 282 281 280 280 280 280 280 279 279 279 278 278 278 278 278 278 278 279 279 279 278 278 278 278 278 278 278 278 278 277 277 277 277 277 277 276 277 276 276 276 276 276 276 276 277 279 281 282 283 283 284 285 281 282 284 285 285 289 294 294 295 296 296 297 297 298 301 306 312
283 284 284 284 283 283 283 283 284 283 283 283 282 282 282 282 281 281 280 280 280 279 278 278 278 277 277 277 277 277 277 277 277 277 278 278 277 278 277 277 277 277 277 277 276 276 277 277 277 277 276 276 276 276 276 276 276 276 276 276 275 275 276 278 280 283 283 282 282 283 285 287 288 288 291 295 295 295 296 297 298 298 300 303 307
Wind_Speed
9 11 11 15 19 18 18 18 17 17 17 17 17 17 17 17 15 13 12 11 9 7 6 7 8 9 9 10 10 10 10 10 11 11 11 8 8 9 8 8 8 7 6 5 6 6 5 6 7 5 5 6 6 8 9 9 9 9 9 8 9 9 11 11 8 8 7 8 8 9 8 8 8 8 8 8 9 8 8 8 9 9 9 8 11
12 11 9 11 17 15 17 18 18 17 18 18 18 18 18 18 17 16 15 14 13 11 10 8 8 8 9 9 10 9 9 8 9 11 10 13 12 9 9 9 10 10 10 9 8 8 7 8 8 6 5 5 5 5 6 7 8 9 9 9 8 8 8 9 8 7 7 8 7 7 7 7 7 8 9 10 10 8 8 8 9 9 8 10 12
8 8 8 10 15 14 16 16 17 17 18 18 18 18 18 18 18 18 18 17 16 15 14 13 13 12 10 9 9 9 9 8 8 8 8 6 9 11 13 12 10 10 10 11 10 9 8 7 8 9 7 5 3 4 4 5 5 6 8 9 8 7 7 7 7 8 8 8 7 7 7 7 7 8 9 10 10 9 9 10 10 10 8 11 13
6 7 7 9 12 13 15 16 17 17 17 18 18 18 18 18 18 17 18 18 18 18 16 16 16 15 14 12 12 11 10 10 9 9 8 8 7 7 9 12 14 13 13 12 11 10 9 8 8 9 9 6 4 5 6 4 4 5 6 9 10 8 8 6 6 8 8 8 7 6 6 6 6 6 9 11 10 11 10 10 10 11 11 13 14
5 6 7 7 8 9 14 15 15 16 17 17 17 18 18 18 18 18 18 18 17 18 19 18 18 18 17 17 15 15 14 13 11 10 9 9 9 8 6 7 10 10 11 13 15 16 11 9 10 10 9 7 7 6 4 4 4 4 6 8 9 9 8 7 6 7 8 8 7 6 8 7 7 6 9 11 11 10 9 10 10 13 14 13 15
6 6 6 7 7 8 14 15 16 16 17 17 17 18 18 18 18 18 18 18 18 18 18 18 19 19 19 19 18 18 17 16 16 14 12 10 9 8 8 10 9 10 11 12 12 13 18 14 10 10 11 8 7 5 4 5 5 4 5 6 8 9 8 6 7 7 7 7 7 7 7 8 7 6 10 12 12 10 8 10 13 14 15 15 16
5 5 6 7 6 9 14 15 16 17 17 18 18 18 18 18 18 19 19 19 19 19 19 18 18 17 18 18 19 19 18 18 19 18 17 16 15 13 12 11 12 11 11 11 11 13 15 15 16 14 11 9 8 7 4 4 6 6 6 6 7 8 8 6 6 6 7 6 7 6 6 8 7 6 10 12 14 11 10 13 15 17 16 15 16
6 5 6 6 5 11 15 15 16 17 17 18 18 18 18 18 19 19 19 19 19 19 19 19 19 18 19 19 19 19 19 18 19 18 18 17 16 16 15 14 14 14 13 12 11 10 11 12 13 14 15 13 9 7 4 4 4 6 7 8 8 8 7 6 6 7 6 7 6 7 7 7 8 7 10 12 14 14 13 14 15 16 16 16 12
7 7 6 6 6 14 15 15 16 17 17 18 18 18 18 18 19 19 19 19 19 19 19 19 19 19 20 21 21 20 20 19 20 20 19 19 19 18 17 16 15 16 16 15 13 12 12 12 12 13 14 15 14 10 7 7 8 7 8 8 9 9 7 6 6 7 6 6 7 7 8 8 7 8 9 12 14 15 14 14 14 17 17 15 12
6 5 6 5 6 14 14 15 16 17 17 18 18 18 19 19 19 19 19 19 19 19 19 19 19 19 20 20 19 19 20 20 20 20 20 20 20 19 18 18 17 17 16 16 16 16 14 13 11 12 12 13 14 16 16 9 7 7 7 8 9 9 8 7 7 7 7 7 8 9 8 7 9 8 10 11 15 16 13 12 10 10 11 14 11
5 5 5 6 8 14 16 16 16 17 17 18 18 18 19 19 19 19 19 19 19 19 19 19 19 19 19 19 19 19 19 19 20 20 20 20 21 20 21 19 19 19 18 18 17 17 16 16 15 15 14 13 13 14 15 16 14 10 8 8 8 9 8 7 7 7 7 7 8 8 8 6 8 9 11 12 16 17 13 11 12 11 12 11 15
4 5 5 5 7 15 15 16 16 17 17 17 18 18 18 18 18 19 19 19 19 19 19 19 19 19 19 19 19 19 19 19 19 19 19 19 19 19 19 20 20 19 19 19 19 19 18 19 17 17 17 15 14 13 14 15 15 15 13 9 8 8 8 8 7 7 7 8 9 8 9 9 10 9 12 13 16 18 13 10 12 15 15 15 16
5 4 5 5 6 14 15 15 16 16 17 17 18 18 18 18 18 18 18 18 19 19 19 19 19 19 19 19 19 19 19 19 19 19 19 19 19 19 19 19 19 20 21 21 21 20 20 19 19 19 17 17 16 15 14 14 15 16 15 13 9 8 7 7 6 8 7 8 9 9 9 9 9 10 11 14 17 18 18 16 16 17 18 17 18
4 5 5 5 6 10 15 15 15 16 17 17 17 18 18 18 18 18 18 19 19 19 18 18 18 19 19 19 19 19 19 19 19 19 19 19 19 19 19 19 19 19 19 19 19 19 19 20 19 18 18 17 16 16 15 15 14 14 15 16 13 9 8 7 7 7 8 9 9 10 9 9 9 9 12 16 18 19 18 17 17 18 18 19 19
5 6 4 5 5 6 12 15 15 15 17 17 17 17 18 18 18 18 18 18 19 19 19 19 18 19 19 19 19 19 19 19 19 19 19 20 20 20 19 19 19 19 19 19 19 19 19 19 19 19 19 17 17 17 17 16 16 15 15 16 16 12 9 8 8 7 7 8 9 9 10 10 9 11 13 16 19 21 19 17 19 18 19 19 20
4 5 4 4 5 5 5 10 14 15 16 17 17 17 18 18 18 18 18 18 18 19 19 18 18 18 18 19 19 19 19 19 19 19 19 20 20 20 19 19 19 19 19 19 19 19 19 19 19 18 18 18 17 17 16 16 17 16 15 14 14 14 12 7 8 9 9 8 8 9 9 10 10 12 13 16 17 22 20 20 20 21 20 20 21
5 4 5 5 6 5 5 6 8 12 13 15 17 17 17 18 17 18 17 17 17 18 18 18 18 18 18 18 18 18 18 18 19 19 18 19 19 19 19 19 18 18 19 19 19 19 18 18 18 18 18 18 18 18 18 17 17 16 16 15 13 14 14 11 8 9 9 9 8 8 9 9 10 14 14 16 17 22 23 21 21 21 20 21 22
4 4 4 4 5 5 5 5 6 6 6 8 12 17 16 17 17 17 17 17 17 17 18 18 17 18 18 17 17 17 17 17 18 18 18 19 18 18 19 18 18 18 18 18 18 18 18 18 18 18 18 18 18 18 18 18 18 17 16 16 15 14 13 13 8 9 10 9 10 9 9 11 11 14 16 16 17 21 21 21 21 21 21 21 21
3 4 3 4 4 4 4 4 5 5 6 5 5 10 17 16 17 17 17 17 17 17 17 17 16 16 16 16 15 15 15 16 16 16 17 18 18 17 18 18 18 18 18 18 18 18 18 18 18 19 18 18 18 18 17 17 17 17 17 17 16 14 14 9 8 9 10 9 9 10 10 11 12 17 18 18 18 19 22 23 23 21 20 21 21
2 3 4 3 3 4 3 3 4 4 4 5 5 6 12 15 15 16 16 16 16 16 16 15 13 13 12 13 11 8 9 9 13 12 15 15 16 15 17 17 18 18 18 18 18 18 18 18 18 19 19 19 19 18 16 16 17 17 17 19 17 17 9 6 9 10 7 8 8 9 11 11 15 18 19 19 19 19 21 23 24 24 22 21 18
2 3 3 2 3 4 3 3 3 4 4 4 4 5 7 9 9 12 13 14 14 13 13 12 11 9 10 9 7 7 6 6 8 10 11 12 14 15 16 16 17 17 18 18 18 18 18 19 19 19 19 19 19 17 14 15 16 17 18 17 16 10 8 8 8 8 8 8 8 10 12 13 17 18 20 20 20 20 21 23 21 25 25 23 19
3 2 2 2 2 2 3 3 3 4 4 3 3 3 4 7 6 6 7 8 9 8 7 7 7 6 8 6 6 7 7 7 8 10 8 11 10 15 15 16 17 17 17 17 18 18 18 18 18 19 19 18 18 10 10 12 14 16 16 14 10 8 9 9 8 8 9 9 9 10 12 16 18 19 20 21 21 21 21 22 22 23 25 24 22
3 2 2 2 1 2 2 4 4 3 5 4 3 3 4 4 5 5 5 7 6 7 5 6 6 6 6 5 6 6 6 6 7 8 8 11 10 13 14 14 15 16 16 16 15 16 17 18 18 18 17 17 10 9 9 9 10 14 12 9 8 8 9 10 10 9 9 9 9 11 12 17 20 20 21 21 21 22 22 22 22 23 23 25 24
5 4 4 1 1 3 3 3 4 4 4 4 3 3 3 4 4 4 4 4 4 4 5 5 5 6 6 6 6 6 6 5 7 9 8 7 7 10 12 12 12 12 15 10 12 12 16 14 15 17 12 8 8 8 9 8 9 9 9 8 8 9 10 9 9 9 9 9 10 13 15 17 20 22 22 22 23 22 23 23 23 23 23 23 24
5 4 2 3 2 3 4 4 4 4 5 3 3 4 3 3 4 4 5 4 5 5 5 6 6 7 7 6 6 6 5 6 6 6 6 6 6 6 7 7 7 8 12 8 8 8 9 9 8 9 8 9 9 9 9 9 9 9 9 9 9 9 9 9 8 9 9 10 10 12 14 18 20 22 23 24 24 24 24 24 24 23 23 23 23
4 4 5 3 3 2 3 3 4 4 4 2 3 3 3 3 4 4 4 4 4 5 5 6 7 8 7 8 7 7 7 7 7 7 7 7 7 7 7 7 7 7 8 7 8 8 8 8 8 8 8 8 8 9 9 9 9 9 9 9 9 9 9 9 9 9 9 9 10 12 14 17 20 22 23 24 24 25 25 26 26 25 24 23 23
5 5 4 3 3 3 4 4 5 4 5 3 2 2 3 3 3 4 4 5 4 4 5 6 6 7 8 8 7 7 7 6 7 8 8 8 8 8 8 8 8 7 7 7 8 7 7 7 8 8 8 9 9 9 9 9 9 10 10 10 10 10 9 9 9 9 9 10 11 14 15 17 21 22 23 25 26 27 26 26 26 25 24 24 25
6 6 5 4 4 4 3 4 4 4 3 3 4 3 3 4 4 4 4 6 5 5 5 5 5 6 6 6 6 5 5 6 6 6 7 6 7 8 8 8 8 8 8 7 8 7 7 7 8 9 9 8 9 9 8 9 9 9 10 10 10 10 10 10 9 10 10 10 10 14 14 14 16 18 24 26 27 27 27 27 28 28 25 24 25
8 7 6 5 5 3 4 5 4 4 3 3 4 2 3 3 3 4 4 5 4 4 4 3 4 4 4 5 6 5 5 5 6 6 5 6 6 6 6 7 7 8 9 8 8 9 8 8 8 8 8 8 8 9 9 9 8 9 9 10 10 10 10 10 10 11 10 10 10 12 15 17 18 20 22 25 27 27 27 27 28 29 29 27 26
9 8 7 6 5 4 5 4 3 3 3 3 2 2 2 3 2 3 3 4 3 3 3 3 4 4 4 5 5 5 5 5 5 5 6 7 6 6 6 6 7 7 8 9 8 8 9 9 9 9 9 9 9 9 9 9 9 9 9 10 10 10 10 10 11 11 11 11 11 12 15 16 18 22 25 25 27 27 28 29 28 29 30 30 27
8 8 7 6 5 5 5 4 3 3 2 3 2 2 1 2 2 2 2 2 2 2 3 3 4 3 4 4 4 5 4 5 5 6 6 6 6 7 7 7 7 7 7 8 9 9 9 9 9 9 9 9 9 9 9 9 10 9 9 10 10 10 10 10 10 11 12 11 11 12 14 18 19 20 20 23 25 27 28 28 29 27 28 31 30
9 9 7 6 5 6 6 4 4 3 4 3 2 2 2 1 1 1 2 1 2 2 2 2 3 2 3 3 4 5 5 5 5 6 6 6 6 7 6 7 7 7 8 8 8 8 8 9 10 10 10 9 9 9 8 9 10 9 10 11 10 10 10 10 11 11 12 11 11 12 12 13 17 18 19 22 25 27 28 28 29 29 30 29 30
7 9 7 7 8 7 6 5 4 4 4 4 3 2 1 1 1 1 1 1 1 1 1 2 2 2 3 3 3 4 4 4 4 5 6 5 5 6 6 6 6 7 8 9 10 8 8 8 9 9 9 9 10 10 9 9 10 10 10 10 10 11 11 11 11 11 12 12 12 12 12 13 14 18 20 20 23 26 28 29 29 29 30 29 29
8 5 7 8 6 5 5 5 5 5 5 3 3 2 1 1 1 1 0 0 0 1 2 2 2 3 3 4 3 4 4 3 3 3 4 4 5 5 5 6 6 7 7 7 7 7 8 8 9 8 8 9 9 9 10 10 9 10 10 10 10 11 11 11 11 12 11 12 12 12 12 12 12 13 14 18 20 22 25 26 28 29 30 30 30
8 7 9 9 8 7 5 5 5 5 4 4 3 2 1 1 0 1 0 0 1 1 2 2 2 2 3 4 4 4 4 4 3 3 3 3 4 5 5 5 6 7 7 7 7 7 7 8 8 9 9 8 8 9 10 10 11 11 11 10 11 11 11 12 12 12 12 13 12 13 13 12 12 12 13 12 16 20 22 24 26 27 29 30 31
11 10 8 8 9 8 7 7 6 6 5 4 3 2 1 0 1 1 1 0 1 2 2 2 2 3 3 4 4 4 5 4 4 3 3 3 4 4 5 6 7 6 6 6 7 7 7 7 7 8 9 9 10 10 9 10 11 12 11 11 11 11 12 12 13 13 13 13 13 13 12 13 13 12 14 14 14 16 20 21 23 25 26 28 30
10 10 10 9 9 8 7 8 7 6 5 3 2 2 1 2 2 1 1 1 2 2 2 3 3 3 3 3 4 4 5 5 4 4 3 3 4 4 5 6 6 7 7 7 6 6 7 7 7 7 7 9 10 12 11 10 11 11 11 12 12 12 12 12 12 13 13 14 14 14 14 14 14 17 15 14 14 14 18 22 23 24 25 25 26
9 10 10 11 10 8 7 7 6 5 4 4 3 2 2 2 1 2 2 2 3 3 3 3 3 3 3 4 4 5 5 5 5 4 3 3 3 4 5 5 6 6 6 6 6 6 6 7 8 7 7 8 9 10 12 11 11 12 12 12 13 12 12 13 13 13 13 15 14 15 14 14 14 14 14 14 15 15 15 18 23 24 24 24 28
9 10 10 9 8 8 6 7 6 5 4 3 3 2 1 1 1 2 3 3 2 3 3 3 4 3 4 4 4 5 5 5 5 5 4 3 3 4 4 5 5 5 5 6 6 6 6 7 8 9 7 7 9 10 11 12 12 12 13 14 13 14 13 13 13 13 13 15 15 15 13 15 15 15 15 15 15 16 16 15 13 13 14 24 25
10 9 10 9 9 7 6 5 6 5 4 3 2 2 1 2 3 2 2 3 3 3 3 4 4 4 4 4 4 5 5 5 6 5 5 4 4 4 5 5 5 5 6 6 6 6 8 9 8 9 10 8 7 8 10 12 12 14 15 15 14 14 15 14 15 15 14 14 14 13 14 14 13 15 16 14 15 16 16 16 15 14 15 19 24
10 10 9 9 9 9 8 8 6 5 5 4 3 3 3 2 2 2 3 3 3 3 4 4 4 4 4 4 5 5 5 6 6 6 5 4 4 5 5 5 5 6 6 7 7 8 7 8 8 7 9 10 8 6 8 10 13 13 10 13 14 12 15 16 16 15 14 14 13 14 14 14 15 15 15 15 16 17 17 17 16 15 15 14 16
10 9 11 11 11 9 10 9 7 6 7 6 5 4 4 3 3 3 3 2 3 3 4 3 4 3 4 4 4 5 6 6 6 6 5 5 5 5 5 6 6 7 7 7 8 8 8 7 8 9 5 8 9 6 7 9 7 8 15 17 14 12 14 16 15 13 15 14 14 14 14 14 15 14 13 14 15 16 17 17 16 16 16 16 16
12 12 11 11 10 9 9 9 8 8 7 6 4 4 4 3 3 3 2 3 3 4 4 4 4 4 4 4 4 5 6 6 6 6 5 4 5 5 5 5 6 6 7 8 7 8 7 8 8 8 10 7 8 7 6 4 8 10 11 13 14 16 10 7 10 12 11 11 11 13 13 13 15 13 13 13 14 15 15 15 17 17 17 17 16
10 10 10 12 10 9 9 8 8 8 7 6 6 6 5 4 3 2 2 2 4 4 5 4 5 5 5 4 4 5 6 7 7 6 5 5 5 6 6 6 6 6 7 8 8 8 7 7 7 8 8 12 7 8 5 5 6 8 8 3 11 10 17 5 4 9 8 11 14 16 14 14 16 16 13 14 14 14 14 15 17 18 18 18 16
11 12 11 11 8 12 11 10 9 9 8 7 7 5 3 2 1 1 1 3 2 3 4 4 4 5 6 6 6 5 7 7 7 6 6 6 5 6 7 7 7 7 7 8 8 8 8 8 8 8 8 9 13 8 8 6 7 7 8 9 7 5 9 14 16 17 9 11 14 13 13 13 13 13 11 13 13 13 14 16 18 18 19 18 18
13 12 11 11 11 10 10 9 8 8 8 8 7 5 5 5 3 2 3 2 4 3 4 5 4 5 7 6 7 6 7 7 7 6 5 6 6 6 7 8 8 8 7 8 9 9 9 9 8 9 10 10 11 13 11 6 8 9 11 12 10 12 13 13 12 16 9 9 15 14 18 17 16 17 16 16 16 14 12 13 14 16 18 19 18
14 10 10 11 11 10 9 9 9 8 7 7 7 5 5 4 6 5 4 4 5 5 3 4 5 6 6 7 7 6 6 7 6 5 5 5 6 6 7 7 8 8 8 8 9 10 9 9 8 9 10 10 10 13 14 10 8 10 11 14 16 17 16 14 13 13 20 14 7 11 12 13 13 13 14 14 14 14 14 14 16 15 15 18 19
12 11 11 10 12 11 10 10 8 8 7 6 7 6 7 5 5 5 4 4 5 7 5 6 5 6 7 8 6 7 7 6 7 6 6 6 6 7 7 7 8 8 8 9 10 9 9 9 9 11 10 10 11 12 14 11 9 9 6 11 13 16 18 20 21 17 18 20 21 10 15 18 18 18 18 19 19 17 17 15 15 15 14 16 16
13 13 12 11 10 10 9 8 8 8 7 8 7 6 6 5 5 4 4 4 5 6 5 5 6 6 8 7 7 7 7 6 6 7 7 7 7 8 8 8 8 9 9 10 10 10 11 12 12 11 11 11 10 12 13 13 11 12 9 12 12 14 14 16 17 18 17 19 23 22 19 16 17 18 18 17 16 15 14 16 15 16 15 15 16
12 11 11 10 10 9 9 9 9 8 7 7 6 6 6 4 4 4 5 5 4 5 5 6 6 6 7 8 7 6 6 5 5 6 7 7 7 8 9 9 10 10 10 11 12 12 12 12 12 12 12 14 11 12 14 13 13 13 12 12 12 11 12 13 15 16 18 19 23 22 19 19 20 18 14 15 16 14 15 16 17 17 16 15 14
10 11 11 11 9 10 9 10 9 8 7 7 7 6 5 5 4 5 6 6 6 5 6 6 5 5 7 7 6 6 5 6 5 6 6 8 7 8 9 10 10 11 11 12 12 12 12 12 12 14 14 15 13 13 15 16 14 15 15 12 13 13 12 14 15 14 15 16 16 20 21 18 18 21 19 17 17 18 17 15 14 15 15 14 14
Wind_Direction
347 334 332 335 339 359 16 26 32 34 37 40 40 40 39 39 40 45 44 38 37 24 1 349 343 337 333 340 345 341 338 334 327 324 331 328 332 329 322 322 321 321 318 319 328 327 324 323 324 319 317 320 321 317 322 322 321 316 315 319 319 320 324 320 289 265 263 272 282 277 272 269 270 268 251 240 242 231 186 197 194 193 197 197 190
313 321 328 329 336 355 24 33 37 38 38 42 43 43 42 43 42 42 42 41 41 42 35 21 6 357 349 341 340 336 334 338 332 319 334 339 321 322 326 330 326 322 317 315 315 319 319 320 315 317 314 311 314 309 308 304 310 312 314 307 306 307 312 315 300 272 263 266 273 277 277 280 276 270 259 246 242 231 179 202 202 205 205 198 191
289 314 327 326 336 1 31 40 44 44 43 44 45 45 46 47 46 46 46 43 41 38 40 39 35 32 21 14 355 344 335 332 322 324 307 298 318 334 331 324 323 315 310 308 306 307 308 302 310 316 317 310 280 244 249 274 286 299 302 305 302 300 299 303 295 275 263 265 273 282 280 277 277 270 260 253 246 229 190 202 203 213 209 195 190
327 334 329 328 338 11 36 42 46 48 48 47 47 45 45 44 46 45 46 45 46 44 42 39 38 37 34 32 25 16 6 352 340 333 326 327 325 323 334 327 315 322 320 311 305 303 304 306 305 307 312 313 267 240 252 238 254 279 294 296 299 299 297 296 288 275 268 266 268 281 278 272 261 252 257 255 243 232 190 204 205 207 212 194 196
343 332 331 331 340 5 38 43 47 49 50 51 50 49 47 46 44 44 43 43 44 43 41 41 40 38 38 35 32 33 30 19 7 357 351 350 338 338 328 308 328 320 314 316 316 313 306 302 303 308 308 311 316 297 240 215 231 264 291 291 294 298 300 296 289 277 265 267 272 272 270 272 270 265 253 251 246 233 193 206 210 209 214 202 198
346 339 339 341 341 4 35 44 46 48 49 50 50 50 49 48 47 46 44 44 43 41 41 39 37 34 33 33 34 34 33 30 28 26 18 8 356 347 341 334 325 323 327 317 317 318 317 310 304 305 309 309 313 321 238 237 252 271 277 285 286 289 294 294 286 283 268 263 272 273 271 271 270 264 249 250 250 232 193 204 214 213 209 210 203
347 345 351 346 336 23 35 44 48 49 49 49 50 50 50 49 48 47 46 43 41 40 38 39 39 35 36 36 37 33 31 32 34 29 31 29 25 16 2 353 344 338 329 329 329 330 320 323 321 314 308 310 314 319 303 300 301 298 291 285 281 283 284 286 287 279 273 269 276 274 272 269 269 263 255 249 251 240 203 212 216 216 212 212 205
11 5 350 347 347 33 39 45 49 51 51 50 50 50 50 50 50 49 47 45 42 40 39 38 36 35 33 34 36 35 31 32 31 29 28 29 31 28 25 17 9 0 350 342 339 329 316 328 322 318 319 316 316 316 319 314 313 312 306 292 283 277 277 270 275 277 266 273 271 273 272 267 264 261 258 249 251 249 223 220 219 219 218 215 207
16 356 352 350 360 39 43 48 50 51 51 52 52 51 50 50 50 50 49 46 44 42 40 39 38 36 35 33 32 32 31 31 30 27 23 24 25 24 22 21 19 15 7 1 356 343 342 333 324 325 325 322 318 314 309 305 302 296 295 293 290 287 276 269 261 262 268 272 269 268 267 265 263 260 260 255 252 250 235 223 223 226 220 218 209
6 357 355 351 15 41 47 50 52 51 52 52 52 51 50 49 49 48 47 46 45 44 43 42 40 39 37 35 33 31 30 29 30 27 24 24 22 19 21 17 17 13 12 7 1 358 353 347 339 334 333 327 335 335 325 308 289 287 282 289 289 286 281 276 265 255 270 270 270 268 264 261 261 259 262 263 257 253 240 222 225 223 228 221 206
11 5 358 352 27 45 48 51 52 52 53 53 53 52 52 52 51 49 47 46 45 44 43 43 42 40 38 36 35 33 32 31 31 29 26 24 21 16 16 17 16 13 14 11 7 3 359 357 1 358 354 352 347 339 332 323 310 292 279 277 280 284 286 274 267 270 265 269 272 271 268 230 255 255 256 260 262 256 249 218 213 224 233 222 209
23 12 5 5 16 49 50 51 52 54 53 54 54 55 54 53 52 50 49 47 46 44 43 43 42 40 38 37 35 34 33 32 31 30 28 24 22 18 14 13 12 18 16 14 13 7 4 2 5 6 5 1 353 346 339 330 320 306 292 275 276 275 278 280 276 276 271 264 270 270 268 264 262 255 249 254 258 257 247 229 219 225 227 226 222
34 23 18 8 3 49 52 53 54 56 55 54 54 53 53 53 52 50 49 48 46 44 43 42 42 40 38 36 34 33 31 30 31 29 26 23 20 18 17 14 12 13 13 11 9 6 4 1 5 4 1 356 352 349 345 342 336 323 312 298 280 271 269 273 279 282 273 266 267 262 265 264 262 257 251 252 257 258 253 240 233 230 227 227 227
60 39 29 18 20 35 53 53 55 56 56 56 55 54 53 51 49 48 47 47 46 44 43 42 41 39 37 36 34 32 30 29 28 27 25 22 19 17 15 15 16 15 12 10 7 5 2 1 2 359 357 355 348 345 346 345 341 337 329 318 304 282 271 268 266 272 273 267 262 263 263 266 266 256 254 253 256 256 252 248 240 235 230 226 227
75 47 31 31 26 24 36 50 53 54 55 55 55 55 54 52 51 48 47 46 45 43 42 42 41 40 38 35 33 31 30 28 27 25 23 20 17 15 13 13 13 12 10 8 7 5 3 2 359 356 354 351 349 349 348 348 344 341 339 331 317 298 277 277 278 274 271 265 264 262 261 261 260 257 257 257 256 259 252 249 244 237 234 228 226
66 60 42 34 33 34 25 34 45 48 51 54 54 54 53 52 52 51 49 48 45 43 42 40 41 40 39 36 33 31 28 28 26 25 23 19 17 13 10 10 10 10 7 6 5 4 2 1 359 356 352 350 348 348 347 346 343 336 334 328 320 307 290 274 278 278 274 268 263 263 259 261 252 254 259 258 253 259 255 250 245 238 233 227 228
47 42 51 36 31 31 34 35 38 41 42 46 53 52 52 51 51 50 50 49 48 46 43 40 40 39 38 37 34 31 28 27 25 23 23 19 16 12 8 7 7 7 4 3 2 1 360 358 357 356 354 351 349 349 347 344 338 335 334 329 320 312 301 283 272 271 272 269 263 262 262 260 250 250 255 259 254 256 258 252 252 247 237 231 230
37 44 49 43 31 29 36 31 34 37 38 36 41 54 52 52 51 50 49 48 47 47 45 43 41 39 37 36 34 32 30 27 25 21 20 18 14 11 6 5 5 4 2 360 359 357 356 355 355 354 354 353 351 350 345 341 338 339 336 331 326 315 304 293 274 271 266 259 261 260 261 256 249 252 254 255 256 256 259 258 252 250 245 239 234
49 47 46 46 42 37 42 36 37 38 42 44 32 46 52 50 50 49 49 48 47 45 43 42 40 40 38 36 32 28 27 26 25 22 19 16 12 9 3 3 3 2 359 357 356 354 353 352 352 352 353 353 354 351 346 341 339 337 333 332 328 321 307 295 283 278 266 258 257 260 260 255 246 252 255 254 253 250 251 254 252 248 244 243 240
61 48 59 38 45 60 42 50 44 44 46 51 44 41 54 50 50 49 47 48 45 44 42 38 32 31 32 32 29 27 21 19 16 20 16 15 10 8 3 2 1 359 357 355 353 352 350 349 350 350 351 351 352 349 346 342 339 336 335 332 327 316 302 292 284 278 268 264 257 258 255 246 247 249 253 254 253 251 250 250 252 251 248 245 240
30 60 47 49 62 65 58 67 56 48 56 57 57 46 59 55 46 48 46 44 44 38 35 30 27 18 21 21 19 27 24 20 16 18 11 12 5 6 2 1 359 358 355 353 351 349 348 347 347 348 349 349 348 343 340 342 339 335 333 329 317 311 312 301 289 278 271 265 255 256 252 250 250 250 249 253 254 253 251 252 247 252 252 248 233
105 90 55 54 81 66 77 78 64 53 64 61 62 63 52 55 50 41 44 38 36 32 27 29 22 19 16 16 22 24 20 17 17 14 14 9 4 4 360 358 358 357 353 352 348 347 345 346 346 345 346 346 344 342 339 338 336 336 329 320 318 321 315 307 295 284 277 271 262 257 245 247 251 251 251 253 253 254 254 252 249 246 250 249 238
144 151 115 104 119 118 89 72 62 56 60 59 54 59 63 63 53 52 46 42 36 32 27 25 24 17 13 17 27 26 22 22 22 15 10 4 5 2 0 359 356 355 351 351 349 346 344 344 343 342 342 341 341 339 337 335 332 331 330 328 325 319 315 309 301 291 281 274 270 263 245 246 251 251 253 254 254 255 255 254 249 245 246 251 246
164 164 147 184 159 100 85 80 61 45 56 47 42 52 54 57 54 47 48 44 39 35 31 29 28 23 15 23 25 23 19 25 19 17 11 10 4 0 358 354 354 353 349 348 345 345 343 340 338 339 338 339 339 335 333 331 329 327 326 325 319 316 313 309 303 298 290 280 272 266 260 254 255 254 252 254 257 257 257 256 252 247 242 242 254
177 165 152 137 113 97 80 63 61 54 57 45 48 43 45 52 49 41 39 36 28 27 26 25 26 23 20 22 21 21 19 22 20 15 11 6 360 358 357 357 352 349 349 347 346 341 342 339 337 338 336 335 333 331 329 328 326 325 323 320 316 313 309 306 305 300 294 288 278 264 258 262 260 258 256 256 257 259 260 260 257 249 245 240 240
173 142 150 138 114 101 91 82 77 68 69 71 58 63 61 60 52 45 42 39 30 24 25 22 21 20 18 14 14 16 15 14 13 10 6 2 359 357 356 351 350 348 349 345 343 340 339 337 336 333 332 329 325 323 322 321 320 320 318 316 313 312 309 304 301 297 295 292 285 270 258 259 260 259 260 258 256 259 261 261 259 256 251 240 235
171 156 167 147 133 110 82 83 70 65 55 57 72 59 58 68 64 53 45 41 33 31 29 27 24 20 17 14 14 13 14 12 9 5 4 359 357 356 353 351 350 349 349 343 339 336 334 334 331 330 326 322 321 318 316 315 313 314 312 311 311 309 306 304 301 298 296 295 293 288 272 260 263 259 262 264 261 260 260 261 260 255 252 246 239
146 164 162 150 136 102 91 80 72 67 50 40 51 35 34 43 43 40 34 35 27 28 28 27 19 21 20 15 12 10 10 9 8 7 2 1 359 351 348 350 349 347 344 343 339 337 334 331 328 324 323 321 317 316 313 312 311 309 308 308 309 307 305 302 301 299 297 293 294 290 282 272 267 268 270 268 268 269 265 261 261 262 255 247 243
151 165 162 144 142 126 97 87 79 70 63 52 48 37 28 41 46 43 36 33 31 28 28 28 28 21 17 9 8 6 8 10 4 2 354 1 356 353 349 348 346 344 343 343 344 337 334 331 328 326 324 320 317 312 311 307 306 307 305 305 305 304 304 303 301 301 299 297 293 290 290 287 279 273 266 264 265 265 265 263 261 261 261 255 248
169 162 159 154 140 124 121 110 113 103 96 73 57 59 27 57 48 55 40 35 32 25 24 26 24 17 12 9 2 359 5 4 2 357 357 356 353 349 349 348 344 346 347 341 341 336 332 329 329 327 325 322 318 313 311 305 302 298 300 300 299 299 299 300 301 301 301 300 297 295 292 286 279 273 269 263 261 259 262 265 263 261 260 259 253
160 165 169 156 140 133 136 147 139 133 101 96 94 71 69 57 58 70 50 38 21 20 27 19 14 12 4 353 350 349 357 2 2 357 356 355 351 349 349 345 344 348 346 339 335 335 331 329 328 327 325 322 316 313 312 308 302 298 292 291 293 295 295 295 295 295 295 294 292 291 291 288 285 281 273 267 260 257 259 262 264 263 263 262 257
171 174 168 152 144 153 148 158 147 132 126 123 118 102 79 64 75 78 74 42 29 29 18 16 0 359 349 340 342 345 348 357 358 355 354 350 349 346 343 344 342 339 339 334 329 326 326 322 325 325 321 318 315 314 312 307 303 298 297 291 288 285 288 291 293 293 291 291 289 288 286 287 286 282 278 273 268 262 258 257 260 264 264 262 263
193 169 160 150 162 164 156 158 147 137 143 151 147 151 174 120 127 99 107 86 27 38 2 348 343 331 335 327 325 330 336 344 351 351 346 344 341 338 341 338 335 333 329 325 320 321 324 325 323 324 320 320 317 317 316 309 305 303 300 295 292 287 284 283 284 288 289 289 288 286 284 285 284 284 278 271 267 264 259 256 254 257 259 261 261
169 165 145 164 165 166 156 151 152 153 160 165 159 147 143 184 135 145 151 203 42 352 330 326 328 324 317 309 302 314 319 320 328 340 340 340 335 332 330 330 330 326 321 322 325 330 328 328 326 324 321 317 313 310 312 309 306 305 303 302 295 293 290 285 282 279 281 285 287 284 283 281 281 280 282 279 272 263 258 254 252 251 254 257 260
156 158 170 170 166 172 166 156 162 165 164 156 153 158 166 230 154 181 230 348 316 317 317 302 301 294 294 291 289 299 302 297 304 327 333 333 327 326 324 326 324 319 319 321 322 324 323 324 327 325 320 316 310 307 305 300 299 297 296 297 296 297 295 290 286 282 277 275 274 279 282 279 276 279 278 277 271 265 257 252 248 243 246 251 256
168 167 173 165 172 174 171 160 168 168 171 165 155 178 215 193 234 244 276 31 281 289 284 278 268 266 267 275 272 278 287 281 290 303 313 324 325 322 324 322 322 322 320 318 321 319 321 316 318 321 320 316 313 305 298 290 287 287 287 288 287 286 286 287 284 282 280 277 271 270 273 277 278 276 279 277 276 273 268 256 248 243 240 244 249
171 165 169 172 172 175 169 165 173 172 169 170 171 207 238 228 234 253 225 279 246 256 264 262 258 254 262 265 265 267 275 271 279 287 301 316 320 320 318 317 318 319 317 319 314 318 318 315 313 314 311 308 309 305 302 296 292 286 284 280 279 280 277 279 277 278 280 275 275 271 269 267 273 275 272 271 270 267 264 261 256 245 239 238 241
175 170 174 171 172 168 171 173 172 173 164 172 185 209 209 237 245 243 259 235 238 243 257 256 252 252 255 253 256 262 275 276 277 283 287 296 304 307 305 305 306 308 309 310 309 308 311 315 313 313 314 309 309 308 304 301 297 295 289 283 281 277 278 276 275 276 273 273 273 272 270 272 266 265 271 270 268 266 265 258 252 249 240 234 237
174 176 173 174 161 166 162 172 168 170 173 176 203 205 263 277 244 272 265 259 248 250 257 255 247 255 252 256 260 265 278 278 279 278 287 299 301 295 296 299 300 301 304 304 307 309 312 314 311 310 308 303 303 304 301 300 296 293 293 290 285 281 278 275 276 274 271 270 269 267 270 268 268 265 260 265 267 267 264 263 257 248 239 230 233
173 172 169 165 165 161 163 169 179 170 156 168 144 219 216 234 249 242 264 252 249 248 254 247 254 251 253 255 255 262 277 281 278 280 283 297 305 306 304 304 306 304 305 308 311 317 315 314 312 313 311 306 298 300 307 308 301 295 290 284 276 278 274 271 273 271 272 271 271 271 266 265 266 267 264 258 264 266 263 260 256 250 250 239 226
172 170 166 172 171 168 163 181 184 169 162 176 194 197 209 218 218 219 228 240 254 254 248 252 247 247 252 256 255 264 277 273 276 280 287 295 298 302 303 306 307 306 304 303 305 303 304 306 308 306 309 311 309 308 310 312 308 301 283 281 287 274 274 273 269 269 269 268 269 268 267 264 261 261 262 261 257 258 261 258 254 250 244 245 235
187 172 174 178 175 173 174 179 173 171 179 183 184 185 185 189 200 237 239 247 268 263 262 237 242 247 255 258 258 264 267 269 277 282 288 293 302 305 305 302 308 301 293 291 295 297 299 305 313 310 302 305 300 305 307 314 303 316 320 316 299 284 259 253 252 258 254 255 258 260 262 262 261 262 265 266 264 259 258 259 256 251 245 244 240
176 181 183 174 177 176 183 178 172 174 185 182 173 196 198 199 181 223 217 271 232 254 264 266 273 269 254 247 247 255 259 264 268 272 275 276 278 284 287 290 287 294 299 296 296 299 302 307 311 310 311 296 283 285 287 309 300 309 296 294 300 327 305 239 244 240 248 255 258 259 260 263 266 268 273 273 271 267 261 257 257 253 247 242 238
182 185 185 181 176 178 182 178 179 180 181 187 188 199 192 183 183 211 267 246 276 296 289 289 291 294 281 260 268 271 271 277 278 281 281 281 289 293 296 294 294 293 293 296 295 293 300 304 305 302 303 303 294 287 259 265 271 307 310 269 303 310 303 310 4 292 267 265 264 266 264 264 269 271 270 266 269 277 281 276 263 256 250 245 241
190 189 186 184 181 184 183 179 177 182 183 181 189 180 166 170 183 298 297 297 273 275 299 282 268 269 275 276 271 272 277 278 278 274 284 294 297 297 297 297 296 292 292 291 294 293 296 293 293 290 289 290 297 289 280 253 248 238 263 303 302 261 247 291 330 293 269 264 260 258 260 263 270 276 276 277 278 276 277 276 279 271 258 251 243
195 194 184 186 180 180 178 180 174 177 182 186 179 163 181 182 185 212 255 255 274 260 252 268 280 268 260 261 263 253 257 264 269 281 287 296 296 290 288 289 287 286 284 285 289 293 290 290 286 285 283 275 279 292 285 258 245 238 237 244 245 272 299 302 320 295 314 250 274 266 265 265 270 271 269 268 271 272 271 277 277 280 278 257 245
197 182 187 185 185 181 178 175 174 177 180 179 167 164 170 185 195 207 217 234 262 268 243 245 261 265 263 264 270 270 265 274 283 283 284 276 276 275 271 271 273 275 278 280 282 282 284 282 283 276 276 278 276 278 280 282 274 247 236 242 252 258 262 279 278 294 295 294 218 270 272 268 265 266 271 268 271 278 280 278 276 274 274 275 255
180 183 187 186 183 181 175 177 174 174 175 168 168 167 176 188 192 205 211 219 228 260 269 270 262 268 273 273 283 283 282 283 290 293 289 289 287 280 276 277 278 280 282 279 280 281 281 275 270 271 272 268 268 267 280 278 271 278 227 248 252 255 256 257 258 264 273 287 291 257 266 274 275 270 266 267 265 266 270 272 273 272 272 271 271
186 187 187 184 184 177 170 163 175 173 170 169 166 179 185 183 190 197 223 228 235 249 258 259 269 266 270 275 272 275 278 278 280 289 289 289 288 288 289 288 288 287 285 282 280 279 277 278 277 273 268 270 263 266 270 271 268 267 272 263 260 258 258 254 255 254 258 273 276 282 280 278 272 266 263 260 261 260 267 274 274 275 272 271 272
188 184 184 181 177 163 166 166 176 177 170 173 168 175 184 181 185 200 220 244 241 257 256 262 259 260 267 272 274 273 278 283 283 280 284 283 285 289 290 289 287 286 285 282 282 282 279 277 275 272 273 270 266 261 260 265 266 267 259 265 265 265 260 257 251 251 257 252 266 277 278 279 277 270 262 255 254 260 267 272 272 271 269 267 266
188 182 187 182 170 166 166 170 179 169 171 170 167 181 174 176 190 203 216 237 247 257 273 271 269 269 272 274 274 279 281 287 293 287 281 287 285 283 287 289 288 285 284 283 282 283 283 282 281 277 272 266 266 263 263 262 264 265 264 260 263 262 259 264 264 259 256 259 261 264 271 269 268 274 263 255 252 255 257 257 265 271 274 276 279